This is the latest recevied weather packets stored in our database for station/object SQ7IQO. If no packets are shown the sender has not sent any weather packets the latest 10 day(s).
| Time | Temp. | Humidity | Pressure | Rain* | Wind** | Luminosity | Snow |
|---|---|---|---|---|---|---|---|
| 1787753798 | 22.78° C | 53% | 1023.5 hPa | 0 mm | 0.45 m/s, ° | - | - |
| 1787753738 | 22.78° C | 54% | 1023.5 hPa | 0 mm | 0.45 m/s, ° | - | - |
| 1787753678 | 22.22° C | 56% | 1023.5 hPa | 0 mm | 0 m/s | - | - |
| 1787753618 | 22.22° C | 55% | 1023.4 hPa | 0 mm | 0.45 m/s, ° | - | - |
| 1787753558 | 22.22° C | 54% | 1023.5 hPa | 0 mm | 0 m/s | - | - |
| 1787753498 | 22.78° C | 54% | 1023.5 hPa | 0 mm | 0.89 m/s, ° | - | - |
| 1787753438 | 23.33° C | 51% | 1023.4 hPa | 0 mm | 0.89 m/s, ° | - | - |
| 1787753378 | 22.78° C | 56% | 1023.5 hPa | 0 mm | 0 m/s | - | - |
| 1787753318 | 22.78° C | 56% | 1023.5 hPa | 0 mm | 0 m/s | - | - |
| 1787753258 | 22.22° C | 55% | 1022.7 hPa | 0 mm | 0 m/s | - | - |
| 1787753198 | 22.22° C | 58% | 1023.5 hPa | 0 mm | 0 m/s | - | - |
| 1787753138 | 22.22° C | 55% | 1023.5 hPa | 0 mm | 0 m/s | - | - |
| 1787753078 | 22.78° C | 55% | 1023.5 hPa | 0 mm | 0 m/s | - | - |
| 1787753018 | 22.78° C | 53% | 1023.5 hPa | 0 mm | 0 m/s | - | - |
| 1787752958 | 23.89° C | 50% | 1023.5 hPa | 0 mm | 0 m/s | - | - |
| 1787752898 | 23.33° C | 53% | 1023.5 hPa | 0 mm | 0 m/s | - | - |
| 1787752838 | 22.78° C | 50% | 1023.5 hPa | 0 mm | 0 m/s | - | - |
| 1787752778 | 23.33° C | 55% | 1023.5 hPa | 0 mm | 0 m/s | - | - |
| 1787752718 | 22.78° C | 53% | 1023.5 hPa | 0 mm | 0 m/s | - | - |
| 1787752658 | 23.33° C | 53% | 1023.5 hPa | 0 mm | 0.45 m/s, ° | - | - |
| 1787752598 | 23.89° C | 49% | 1023.6 hPa | 0 mm | 0.45 m/s, ° | - | - |
| 1787752538 | 24.44° C | 51% | 1023.5 hPa | 0 mm | 0 m/s | - | - |
| 1787752478 | 23.89° C | 51% | 1023.5 hPa | 0 mm | 0 m/s | - | - |
| 1787752418 | 23.89° C | 50% | 1023.5 hPa | 0 mm | 0 m/s | - | - |
| 1787752358 | 23.89° C | 53% | 1023.5 hPa | 0 mm | 0 m/s | - | - |
* Rain latest hour (hover to see other rain measurements)
** Current wind speed in m/s (hover to see current wind gust speed)